sat.trackr.live / text

‹ back to catalog

STARLINK-2361

NORAD 47901 · 2021-021AT

PAYLOAD ACTIVE UNKNOWN

§ Identity

Operator
Country
US
Launch date
2021-03-14
Launch site
AFETR
Launch vehicle
Mass (kg)
RCS (m²)

Purposes: comms

External: N2YO · Heavens-Above · Gunter

§ Orbital elements

Epoch: 2026-09-20T01:34:48.766080Z

Period
93.08 min
Inclination
53.1523°
Eccentricity
0.0000263
Mean motion
15.47011778 rev/d
Perigee alt
425.3 km
Apogee alt
425.7 km
Semi-major
6,803.6 km
B*
9.0300e-4
RAAN
60.8632°
Arg perigee
251.6729°
Mean anomaly
108.4251°
Rev number
30,634

§ Raw data

STARLINK-23611 47901U 21021AT  26263.06584220  .00046191  00000+0  90300-3 0  99982 47901  53.1523  60.8632 0000263 251.6729 108.4251 15.47011778306348

JSON: /api/v1/satellites/47901 · /tle

For live sub-satellite position, see the globe view (requires WebGL).

§ Visibility from observer

Set your observer location to see the next 7 days of passes ≥ 10°. The values pass through the URL so the page stays shareable.

No JS? Fill the form by hand. The geolocation button needs JavaScript.